Вернуться в каталог

COSMOS 1823 DEB

АктивенLEO
NORAD 20285·DEBRIS·🇷🇺 Russia

Запущен Feb 20, 1987 с Plesetsk Cosmodrome

Loading…

Ближайшие Пролёты (ближайшие 24 часа)

TLE

СвежийSource: Space-Track

Эпоха: Sep 13, 2026, 02:51 UTC

1 20285U 87020DP  26256.11903694 -.00000294  00000-0 -23251-2 0  9990
2 20285  73.6444  24.1538 0080027  99.7307  74.0054 12.30568607609184

Отслеживайте COSMOS 1823 DEB в реальном времени с AllMySat

Download on the App Store